EW2642 Weather Reports


Display with metric or nautical units.
time (UTC)temp
F
wind
direction
speed
MPH
gust
MPH
rain 1hr
in
rain 24hr
in
rain mn
in
humidity
%
barometer
mb
20260503234515 72 352 5.0 11.0 0.00 0.00 0.00 22 1012.4
20260503233014 73 293 4.0 11.0 0.00 0.00 0.00 22 1012.4
20260503231518 76 144 3.0 13.0 0.00 0.00 0.00 20 1012.4
20260503230024 76 342 5.0 11.0 0.00 0.00 0.00 19 1012.7
20260503224515 75 128 3.0 11.0 0.00 0.00 0.00 20 1012.8
20260503223022 76 44 4.0 10.0 0.00 0.00 0.00 20 1012.9
20260503221515 76 52 6.0 12.0 0.00 0.00 0.00 19 1013.1
20260503220035 75 120 6.0 15.0 0.00 0.00 0.00 18 1013.3
20260503214525 76 113 9.0 14.0 0.00 0.00 0.00 18 1013.4
20260503213016 76 97 8.0 14.0 0.00 0.00 0.00 18 1013.7
20260503211521 75 103 8.0 13.0 0.00 0.00 0.00 20 1013.8
20260503210018 75 5 6.0 15.0 0.00 0.00 0.00 18 1014.1
20260503204513 74 168 2.0 15.0 0.00 0.00 0.00 18 1014.2
20260503203022 75 108 6.0 13.0 0.00 0.00 0.00 21 1014.4
20260503201512 75 67 7.0 12.0 0.00 0.00 0.00 21 1014.5
20260503200016 74 90 6.0 11.0 0.00 0.00 0.00 23 1014.8
20260503194520 73 97 8.0 16.0 0.00 0.00 0.00 25 1015.1
20260503193015 73 80 4.0 11.0 0.00 0.00 0.00 25 1015.3
20260503191513 72 147 3.0 12.0 0.00 0.00 0.00 25 1015.6
20260503190015 72 102 8.0 13.0 0.00 0.00 0.00 23 1015.8
20260503184529 72 107 7.0 13.0 0.00 0.00 0.00 24 1015.9
20260503183038 71 107 5.0 11.0 0.00 0.00 0.00 27 1016.1
20260503181529 70 107 7.0 14.0 0.00 0.00 0.00 25 1016.2
20260503180032 70 149 5.0 11.0 0.00 0.00 0.00 24 1016.4
20260503174520 69 126 3.0 10.0 0.00 0.00 0.00 24 1016.4
20260503173016 68 136 5.0 11.0 0.00 0.00 0.00 24 1016.6
20260503171519 67 99 4.0 9.0 0.00 0.00 0.00 25 1016.6
20260503081516 56 360 3.0 5.0 0.00 0.00 0.00 39 1017.0
20260503071522 56 5 1.0 3.0 0.00 0.00 0.00 40 1017.3
20260503054530 58 120 0.0 6.0 0.00 0.00 0.00 37 1016.6
20260503053014 59 112 0.0 8.0 0.00 0.00 0.00 35 1016.4
20260503051521 61 34 3.0 11.0 0.00 0.00 0.00 30 1016.2
20260503050018 61 5 3.0 8.0 0.00 0.00 0.00 31 1016.2
20260503044518 61 119 2.0 6.0 0.00 0.00 0.00 33 1016.4
20260503043022 62 87 2.0 7.0 0.00 0.00 0.00 31 1016.2
20260503041533 61 33 4.0 10.0 0.00 0.00 0.00 32 1015.9
20260503040018 62 34 4.0 7.0 0.00 0.00 0.00 33 1015.8
20260503034518 62 55 0.0 3.0 0.00 0.00 0.00 32 1015.8
20260503033018 63 63 2.0 7.0 0.00 0.00 0.00 32 1015.6
20260503031517 64 63 3.0 8.0 0.00 0.00 0.00 31 1015.3
20260503030034 64 48 2.0 9.0 0.00 0.00 0.00 32 1015.0
20260503024515 65 57 2.0 7.0 0.00 0.00 0.00 31 1014.8
20260503023028 66 37 4.0 9.0 0.00 0.00 0.00 29 1014.8
20260503021515 67 49 5.0 12.0 0.00 0.00 0.00 27 1014.6
20260503020014 67 50 5.0 12.0 0.00 0.00 0.00 27 1014.4
20260503014513 68 71 4.0 10.0 0.00 0.00 0.00 29 1014.2
20260503013027 69 65 3.0 12.0 0.00 0.00 0.00 25 1014.2
20260503011518 70 61 7.0 10.0 0.00 0.00 0.00 21 1014.2
20260503010014 70 34 5.0 12.0 0.00 0.00 0.00 21 1014.3
20260503004515 72 76 5.0 10.0 0.00 0.00 0.00 20 1014.3
20260503003036 71 38 4.0 10.0 0.00 0.00 0.00 20 1014.4
20260503001516 71 40 6.0 11.0 0.00 0.00 0.00 19 1014.5
20260503000020 71 70 8.0 13.0 0.00 0.00 0.00 18 1014.5